FW6276 Weather Reports


Display with metric or nautical units.
time (UTC)temp
F
wind
direction
speed
MPH
gust
MPH
rain 1hr
in
rain 24hr
in
rain mn
in
humidity
%
barometer
mb
20260510213014 84 53 1.0 4.0 0.00 0.00 0.00 36 1015.0
20260510212504 84 37 1.0 4.0 0.00 0.00 0.00 35 1015.0
20260510212004 84 357 1.0 3.0 0.00 0.00 0.00 34 1014.9
20260510211519 85 92 0.0 4.0 0.00 0.00 0.00 34 1014.9
20260510211008 84 124 1.0 5.0 0.00 0.00 0.00 33 1014.9
20260510210512 84 35 2.0 5.0 0.00 0.00 0.00 34 1014.9
20260510210022 84 60 1.0 5.0 0.00 0.00 0.00 36 1014.8
20260510205510 83 207 2.0 5.0 0.00 0.00 0.00 34 1014.7
20260510205004 83 41 1.0 4.0 0.00 0.00 0.00 35 1014.8
20260510204509 84 194 2.0 4.0 0.00 0.00 0.00 37 1014.7
20260510204004 85 117 1.0 4.0 0.00 0.00 0.00 36 1014.8
20260510203503 86 44 1.0 3.0 0.00 0.00 0.00 35 1014.8
20260510203012 85 197 1.0 3.0 0.00 0.00 0.00 35 1014.7
20260510202505 85 109 1.0 4.0 0.00 0.00 0.00 36 1014.7
20260510202005 85 53 2.0 7.0 0.00 0.00 0.00 39 1014.7
20260510201517 84 26 1.0 7.0 0.00 0.00 0.00 39 1014.7
20260510201004 84 229 2.0 4.0 0.00 0.00 0.00 39 1014.7
20260510200505 84 174 2.0 4.0 0.00 0.00 0.00 39 1014.7
20260510200021 84 198 1.0 4.0 0.00 0.00 0.00 41 1014.9
20260510195510 85 221 2.0 4.0 0.00 0.00 0.00 37 1015.0
20260510195007 85 246 2.0 4.0 0.00 0.00 0.00 37 1015.0
20260510194522 85 238 2.0 4.0 0.00 0.00 0.00 36 1015.0
20260510194008 84 160 1.0 3.0 0.00 0.00 0.00 38 1015.1
20260510193504 84 164 1.0 7.0 0.00 0.00 0.00 38 1015.2
20260510193006 83 262 3.0 7.0 0.00 0.00 0.00 40 1015.2
20260510192503 82 227 3.0 6.0 0.00 0.00 0.00 42 1015.2
20260510192004 81 129 1.0 4.0 0.00 0.00 0.00 48 1015.4
20260510191516 80 39 3.0 4.0 0.00 0.00 0.00 44 1015.3
20260510191004 80 43 3.0 4.0 0.00 0.00 0.00 44 1015.5
20260510190505 81 34 3.0 4.0 0.00 0.00 0.00 43 1015.5
20260510190017 82 28 3.0 4.0 0.00 0.00 0.00 40 1015.5
20260510185505 83 60 1.0 4.0 0.00 0.00 0.00 43 1015.6
20260510185006 82 27 2.0 4.0 0.00 0.00 0.00 44 1015.6
20260510184522 82 48 1.0 3.0 0.00 0.00 0.00 45 1015.7
20260510184008 82 195 0.0 3.0 0.00 0.00 0.00 40 1015.7
20260510183511 82 212 2.0 4.0 0.00 0.00 0.00 39 1015.7
20260510183035 83 127 1.0 5.0 0.00 0.00 0.00 39 1015.7
20260510182508 82 194 3.0 5.0 0.00 0.00 0.00 39 1015.7
20260510182004 82 190 2.0 6.0 0.00 0.00 0.00 41 1015.8
20260510181507 81 239 2.0 6.0 0.00 0.00 0.00 44 1015.9
20260510181005 82 27 3.0 6.0 0.00 0.00 0.00 42 1015.9
20260510180508 82 32 3.0 5.0 0.00 0.00 0.00 43 1015.9
20260510180014 83 42 1.0 5.0 0.00 0.00 0.00 40 1016.0
20260510175507 83 45 2.0 7.0 0.00 0.00 0.00 44 1016.1
20260510175005 82 6 1.0 7.0 0.00 0.00 0.00 44 1016.2
20260510174518 82 70 2.0 5.0 0.00 0.00 0.00 41 1016.1
20260510174007 82 64 1.0 5.0 0.00 0.00 0.00 43 1016.2
20260510173508 81 51 1.0 5.0 0.00 0.00 0.00 44 1016.1
20260510173023 81 42 1.0 5.0 0.00 0.00 0.00 43 1016.1
20260510172509 82 31 2.0 4.0 0.00 0.00 0.00 47 1016.1
20260510172011 81 34 2.0 4.0 0.00 0.00 0.00 45 1016.2
20260510171524 81 1 3.0 4.0 0.00 0.00 0.00 42 1016.2
20260510171008 81 18 2.0 4.0 0.00 0.00 0.00 44 1016.2
20260510170506 81 27 2.0 4.0 0.00 0.00 0.00 50 1016.2
20260510170014 80 43 1.0 5.0 0.00 0.00 0.00 50 1016.2
20260510165505 80 26 3.0 5.0 0.00 0.00 0.00 46 1016.2
20260510165005 80 38 3.0 5.0 0.00 0.00 0.00 47 1016.2
20260510164526 80 53 3.0 5.0 0.00 0.00 0.00 48 1016.3
20260510164006 80 43 1.0 4.0 0.00 0.00 0.00 47 1016.3
20260510163506 79 44 1.0 3.0 0.00 0.00 0.00 46 1016.3
20260510163020 79 111 1.0 3.0 0.00 0.00 0.00 49 1016.2
20260510162509 79 99 1.0 2.0 0.00 0.00 0.00 48 1016.3
20260510162006 78 58 2.0 5.0 0.00 0.00 0.00 51 1016.4
20260510161507 77 44 4.0 5.0 0.00 0.00 0.00 52 1016.4
20260510161004 77 48 3.0 6.0 0.00 0.00 0.00 54 1016.4
20260510160504 78 45 4.0 6.0 0.00 0.00 0.00 54 1016.4
20260510160009 78 32 4.0 6.0 0.00 0.00 0.00 48 1016.4
20260510155508 78 24 2.0 5.0 0.00 0.00 0.00 50 1016.4
20260510155004 77 34 2.0 6.0 0.00 0.00 0.00 55 1016.4
20260510154514 77 26 4.0 7.0 0.00 0.00 0.00 52 1016.4
20260510154006 78 37 5.0 7.0 0.00 0.00 0.00 48 1016.5
20260510153504 79 28 3.0 5.0 0.00 0.00 0.00 52 1016.6
20260510153025 79 20 2.0 5.0 0.00 0.00 0.00 52 1016.5
20260510152513 79 37 2.0 6.0 0.00 0.00 0.00 55 1016.7
20260510152010 78 45 4.0 6.0 0.00 0.00 0.00 53 1016.7
20260510151520 79 11 2.0 6.0 0.00 0.00 0.00 47 1016.7
20260510151007 78 18 2.0 6.0 0.00 0.00 0.00 52 1016.7
20260510150512 77 31 3.0 6.0 0.00 0.00 0.00 56 1016.7
20260510150004 78 30 3.0 6.0 0.00 0.00 0.00 53 1016.6
20260510145507 78 24 3.0 5.0 0.00 0.00 0.00 56 1016.5
20260510145005 78 28 2.0 5.0 0.00 0.00 0.00 56 1016.6
20260510144511 78 65 2.0 7.0 0.00 0.00 0.00 55 1016.5
20260510144007 78 21 4.0 7.0 0.00 0.00 0.00 52 1016.4
20260510143507 79 58 1.0 4.0 0.00 0.00 0.00 54 1016.5
20260510143013 78 34 2.0 7.0 0.00 0.00 0.00 57 1016.5
20260510142505 77 30 4.0 7.0 0.00 0.00 0.00 58 1016.6
20260510142008 77 32 1.0 5.0 0.00 0.00 0.00 59 1016.5
20260510141519 78 356 2.0 5.0 0.00 0.00 0.00 59 1016.4
20260510141008 78 27 2.0 5.0 0.00 0.00 0.00 59 1016.3
20260510140511 77 28 3.0 5.0 0.00 0.00 0.00 59 1016.3
20260510140023 77 36 2.0 4.0 0.00 0.00 0.00 63 1016.4
20260510135508 76 20 2.0 4.0 0.00 0.00 0.00 63 1016.4
20260510135007 75 26 3.0 4.0 0.00 0.00 0.00 68 1016.4
20260510134508 74 29 2.0 4.0 0.00 0.00 0.00 68 1016.4
20260510134004 74 56 1.0 2.0 0.00 0.00 0.00 72 1016.5
20260510133504 73 52 2.0 2.0 0.00 0.00 0.00 74 1016.5
20260510133012 73 48 2.0 3.0 0.00 0.00 0.00 74 1016.4
20260510132503 73 37 2.0 3.0 0.00 0.00 0.00 73 1016.4
20260510132007 73 28 3.0 3.0 0.00 0.00 0.00 73 1016.3
20260510131514 74 34 2.0 3.0 0.00 0.00 0.00 73 1016.3
20260510131005 74 46 1.0 2.0 0.00 0.00 0.00 69 1016.2
20260510130505 75 54 0.0 2.0 0.00 0.00 0.00 71 1016.3
20260510130028 74 186 1.0 2.0 0.00 0.00 0.00 72 1016.3
20260510125509 74 151 1.0 2.0 0.00 0.00 0.00 73 1016.2
20260510125011 74 83 1.0 2.0 0.00 0.00 0.00 72 1016.1
20260510124533 73 36 0.0 1.0 0.00 0.00 0.00 76 1016.1
20260510124013 72 197 0.0 2.0 0.00 0.00 0.00 79 1016.1
20260510123510 70 161 0.0 2.0 0.00 0.00 0.00 81 1016.2
20260510123009 69 181 1.0 2.0 0.00 0.00 0.00 84 1016.2
20260510122504 68 51 1.0 2.0 0.00 0.00 0.00 85 1016.1
20260510122003 68 55 1.0 2.0 0.00 0.00 0.00 85 1016.1
20260510121513 67 44 0.0 1.0 0.00 0.02 0.00 87 1016.1
20260510121008 66 44 0.0 2.0 0.00 0.03 0.00 88 1015.9
20260510120508 66 44 1.0 2.0 0.00 0.03 0.00 88 1015.8
20260510120016 66 204 0.0 1.0 0.00 0.07 0.00 89 1015.8
20260510115507 65 204 0.0 0.0 0.00 0.07 0.00 89 1015.8
20260510115006 65 204 0.0 0.0 0.00 0.07 0.00 90 1015.6
20260510114522 64 204 0.0 0.0 0.00 0.07 0.00 92 1015.6
20260510114010 63 204 0.0 0.0 0.00 0.07 0.00 93 1015.6
20260510113507 62 204 0.0 0.0 0.00 0.07 0.00 94 1015.6
20260510113030 62 204 0.0 0.0 0.00 0.07 0.00 95 1015.6
20260510112512 61 204 0.0 0.0 0.00 0.07 0.00 96 1015.5
20260510112011 60 204 0.0 0.0 0.00 0.07 0.00 96 1015.4
20260510111512 60 204 0.0 0.0 0.00 0.07 0.00 96 1015.3
20260510111005 59 204 0.0 0.0 0.00 0.07 0.00 96 1015.3
20260510110512 59 204 0.0 0.0 0.00 0.07 0.00 96 1015.2
20260510110017 59 204 0.0 0.0 0.00 0.07 0.00 96 1015.1
20260510105507 59 204 0.0 0.0 0.00 0.07 0.00 96 1015.0
20260510105007 59 204 0.0 0.0 0.00 0.07 0.00 96 1014.9
20260510104524 58 204 0.0 0.0 0.00 0.07 0.00 96 1014.7
20260510104007 58 204 0.0 0.0 0.00 0.07 0.00 96 1014.7
20260510103508 58 204 0.0 0.0 0.00 0.07 0.00 96 1014.7
20260510103028 58 204 0.0 0.0 0.00 0.07 0.00 96 1014.6
20260510102508 59 204 0.0 0.0 0.00 0.07 0.00 96 1014.5
20260510102008 58 204 0.0 0.0 0.00 0.07 0.00 96 1014.5
20260510101527 58 204 0.0 0.0 0.00 0.07 0.00 95 1014.4
20260510101013 59 204 0.0 0.0 0.00 0.07 0.00 96 1014.4
20260510100516 59 204 0.0 0.0 0.00 0.07 0.00 96 1014.4
20260510100009 59 204 0.0 0.0 0.00 0.07 0.00 95 1014.3
20260510095505 59 204 0.0 0.0 0.00 0.07 0.00 96 1014.2
20260510095006 59 204 0.0 0.0 0.00 0.07 0.00 96 1014.1
20260510094514 59 204 0.0 0.0 0.00 0.07 0.00 96 1014.0
20260510094008 59 204 0.0 0.0 0.00 0.07 0.00 96 1014.0
20260510093509 59 204 0.0 0.0 0.00 0.07 0.00 96 1013.9
20260510093019 59 204 0.0 1.0 0.00 0.07 0.00 96 1013.9
20260510092512 59 203 0.0 1.0 0.00 0.07 0.00 95 1013.9
20260510092012 59 232 0.0 1.0 0.00 0.07 0.00 95 1013.7
20260510091542 59 232 0.0 1.0 0.00 0.07 0.00 96 1013.5
20260510091010 59 232 0.0 0.0 0.00 0.07 0.00 96 1013.5
20260510090509 59 232 0.0 0.0 0.00 0.07 0.00 96 1013.5
20260510090026 59 232 0.0 0.0 0.00 0.07 0.00 96 1013.5
20260510085510 59 232 0.0 1.0 0.00 0.07 0.00 96 1013.4
20260510085009 59 232 0.0 1.0 0.00 0.07 0.00 96 1013.4
20260510084513 59 232 0.0 0.0 0.00 0.07 0.00 95 1013.4
20260510084006 59 232 0.0 0.0 0.00 0.07 0.00 95 1013.3
20260510083515 59 232 0.0 0.0 0.00 0.07 0.00 95 1013.4
20260510083016 59 232 0.0 2.0 0.00 0.07 0.00 95 1013.4
20260510082504 59 232 0.0 2.0 0.00 0.07 0.00 96 1013.4
20260510082008 59 228 1.0 2.0 0.00 0.07 0.00 96 1013.3
20260510081532 59 224 1.0 2.0 0.00 0.07 0.00 96 1013.3
20260510081005 59 216 1.0 2.0 0.00 0.07 0.00 96 1013.2
20260510080508 59 226 1.0 1.0 0.00 0.07 0.00 95 1013.2
20260510080025 59 195 0.0 0.0 0.00 0.07 0.00 95 1013.1
20260510075514 59 195 0.0 0.0 0.00 0.07 0.00 95 1013.1
20260510075007 59 195 0.0 0.0 0.00 0.07 0.00 95 1013.0
20260510074530 59 195 0.0 0.0 0.00 0.07 0.00 95 1013.0
20260510074019 59 195 0.0 0.0 0.00 0.07 0.00 95 1013.0
20260510073522 59 195 0.0 0.0 0.00 0.07 0.00 95 1013.1
20260510073022 59 195 0.0 0.0 0.00 0.07 0.00 95 1013.2
20260510072507 59 195 0.0 1.0 0.00 0.07 0.00 95 1013.2
20260510072006 59 195 0.0 1.0 0.00 0.07 0.00 95 1013.2
20260510071529 59 195 0.0 1.0 0.00 0.07 0.00 95 1013.2
20260510071009 59 225 0.0 1.0 0.00 0.07 0.00 95 1013.1
20260510070506 59 225 0.0 1.0 0.00 0.07 0.00 95 1013.0
20260510070027 59 225 0.0 1.0 0.00 0.07 0.00 95 1013.0
20260510065510 59 225 0.0 1.0 0.00 0.07 0.00 95 1013.0
20260510065009 59 225 0.0 0.0 0.00 0.07 0.00 95 1012.9
20260510064527 60 225 0.0 0.0 0.00 0.07 0.00 95 1012.9
20260510064003 60 225 0.0 0.0 0.00 0.07 0.00 95 1013.1
20260510063503 59 225 0.0 0.0 0.00 0.07 0.00 95 1013.1
20260510063018 59 225 0.0 0.0 0.00 0.07 0.00 94 1013.2
20260510062503 59 225 0.0 2.0 0.00 0.07 0.00 94 1013.3
20260510062007 60 225 0.0 2.0 0.00 0.07 0.00 95 1013.4
20260510061530 60 232 1.0 2.0 0.00 0.07 0.00 95 1013.5
20260510061007 60 229 1.0 2.0 0.00 0.07 0.00 94 1013.4
20260510060506 60 203 0.0 1.0 0.00 0.07 0.00 95 1013.3
20260510060030 60 203 0.0 1.0 0.00 0.07 0.00 94 1013.3
20260510055505 60 203 0.0 0.0 0.00 0.07 0.00 94 1013.2
20260510055006 60 205 0.0 0.0 0.00 0.07 0.00 94 1013.2
20260510054527 60 205 0.0 0.0 0.00 0.07 0.00 94 1013.2
20260510054007 60 205 0.0 0.0 0.00 0.07 0.00 94 1013.2
20260510053513 61 205 0.0 0.0 0.00 0.07 0.00 94 1013.2
20260510053011 61 205 0.0 0.0 0.00 0.07 0.00 94 1013.2
20260510052503 61 205 0.0 0.0 0.00 0.07 0.00 94 1013.2
20260510052010 61 205 0.0 0.0 0.00 0.07 0.00 94 1013.3
20260510051512 61 205 0.0 0.0 0.00 0.07 0.00 94 1013.4
20260510051007 61 205 0.0 0.0 0.00 0.07 0.00 94 1013.5
20260510050506 61 205 0.0 0.0 0.00 0.07 0.00 94 1013.5
20260510050020 61 205 0.0 0.0 0.00 0.07 0.00 94 1013.5
20260510045509 61 205 0.0 0.0 0.00 0.07 0.00 94 1013.4
20260510045015 61 205 0.0 0.0 0.00 0.07 0.00 94 1013.3
20260510044523 61 205 0.0 0.0 0.00 0.07 0.00 94 1013.4
20260510044011 61 205 0.0 0.0 0.00 0.07 0.00 94 1013.5
20260510043511 61 205 0.0 0.0 0.00 0.07 0.00 94 1013.5
20260510043026 61 205 0.0 0.0 0.00 0.07 0.00 94 1013.4
20260510042510 61 205 0.0 0.0 0.00 0.07 0.00 94 1013.5
20260510042010 61 205 0.0 0.0 0.00 0.07 0.00 94 1013.4
20260510041511 61 205 0.0 0.0 0.00 0.07 0.00 94 1013.5
20260510041003 60 205 0.0 0.0 0.00 0.07 0.00 94 1013.5
20260510040503 60 205 0.0 0.0 0.00 0.07 0.00 93 1013.5
20260510040017 60 205 0.0 0.0 0.00 0.07 0.00 93 1013.5
20260510035504 60 205 0.0 0.0 0.00 0.07 0.07 93 1013.5
20260510035007 61 205 0.0 0.0 0.00 0.07 0.07 93 1013.5
20260510034521 60 205 0.0 0.0 0.00 0.07 0.07 93 1013.5
20260510034011 61 205 0.0 0.0 0.00 0.07 0.07 92 1013.5
20260510033507 61 205 0.0 0.0 0.00 0.07 0.07 92 1013.4
20260510033024 61 205 0.0 0.0 0.00 0.07 0.07 92 1013.4
20260510032507 61 205 0.0 0.0 0.00 0.07 0.07 92 1013.4
20260510032011 61 205 0.0 0.0 0.00 0.07 0.07 91 1013.4
20260510031527 61 205 0.0 1.0 0.00 0.07 0.07 91 1013.5
20260510031011 61 205 0.0 1.0 0.00 0.07 0.07 91 1013.4
20260510030508 62 207 0.0 1.0 0.00 0.07 0.07 91 1013.5
20260510030011 62 207 0.0 1.0 0.00 0.07 0.07 90 1013.4
20260510025503 62 207 0.0 1.0 0.00 0.07 0.07 90 1013.4
20260510025007 62 207 0.0 1.0 0.00 0.07 0.07 90 1013.5
20260510024516 62 207 0.0 1.0 0.00 0.07 0.07 90 1013.5
20260510024010 62 207 0.0 1.0 0.00 0.07 0.07 90 1013.5
20260510023507 62 207 0.0 1.0 0.00 0.07 0.07 90 1013.4
20260510023020 62 203 0.0 1.0 0.00 0.07 0.07 90 1013.4
20260510022508 62 200 0.0 0.0 0.00 0.07 0.07 90 1013.4
20260510022011 62 200 0.0 0.0 0.00 0.07 0.07 90 1013.4
20260510021523 62 200 0.0 0.0 0.00 0.07 0.07 89 1013.3
20260510021008 62 200 0.0 0.0 0.00 0.07 0.07 89 1013.3
20260510020509 63 200 0.0 0.0 0.00 0.07 0.07 89 1013.3
20260510020028 63 200 0.0 0.0 0.00 0.07 0.07 89 1013.2
20260510015509 63 200 0.0 0.0 0.00 0.07 0.07 88 1013.2
20260510015010 63 200 0.0 0.0 0.00 0.07 0.07 88 1013.1
20260510014515 63 200 0.0 0.0 0.00 0.07 0.07 88 1013.0
20260510014003 64 200 0.0 0.0 0.00 0.07 0.07 88 1012.9
20260510013505 64 200 0.0 0.0 0.00 0.07 0.07 88 1012.8
20260510013020 64 200 0.0 0.0 0.00 0.07 0.07 88 1012.8
20260510012508 64 200 0.0 0.0 0.00 0.07 0.07 87 1012.8
20260510012009 64 200 0.0 0.0 0.00 0.07 0.07 87 1012.8
20260510011524 64 200 0.0 0.0 0.00 0.07 0.07 87 1012.7
20260510011008 65 200 0.0 0.0 0.00 0.07 0.07 86 1012.6
20260510010510 65 200 0.0 0.0 0.00 0.07 0.07 86 1012.5
20260510010027 65 200 0.0 0.0 0.00 0.07 0.07 87 1012.3
20260510005507 66 200 0.0 0.0 0.00 0.07 0.07 84 1012.3
20260510005007 66 200 0.0 0.0 0.00 0.07 0.07 84 1012.2
20260510004527 66 200 0.0 0.0 0.00 0.07 0.07 84 1012.1
20260510004015 66 200 0.0 0.0 0.00 0.07 0.07 85 1012.1
20260510003516 67 200 0.0 0.0 0.00 0.07 0.07 83 1012.1
20260510003013 67 199 0.0 0.0 0.00 0.07 0.07 82 1012.1
20260510002504 67 200 0.0 0.0 0.00 0.07 0.07 81 1012.1
20260510002007 68 200 0.0 0.0 0.00 0.07 0.07 81 1012.0
20260510001518 68 200 0.0 0.0 0.00 0.07 0.07 79 1011.9
20260510001008 69 200 0.0 0.0 0.00 0.07 0.07 77 1011.9
20260510000507 69 200 0.0 0.0 0.00 0.07 0.07 76 1011.7
20260510000025 70 200 0.0 0.0 0.00 0.07 0.07 75 1011.7
20260509235507 70 200 0.0 0.0 0.00 0.07 0.07 74 1011.6
20260509235012 70 200 0.0 1.0 0.00 0.07 0.07 73 1011.5
20260509234535 71 200 0.0 2.0 0.00 0.07 0.07 73 1011.5
20260509234009 71 205 0.0 2.0 0.00 0.07 0.07 72 1011.5
20260509233512 71 218 1.0 4.0 0.00 0.07 0.07 71 1011.6
20260509233038 72 236 1.0 4.0 0.00 0.07 0.07 71 1011.5
20260509232510 72 184 1.0 3.0 0.00 0.07 0.07 71 1011.4
20260509232011 72 248 1.0 3.0 0.00 0.07 0.07 71 1011.4
20260509231516 72 235 1.0 5.0 0.00 0.07 0.07 71 1011.4
20260509231004 72 177 1.0 5.0 0.00 0.07 0.07 71 1011.4
20260509230510 73 174 2.0 4.0 0.00 0.07 0.07 70 1011.4
20260509230022 73 203 1.0 4.0 0.00 0.07 0.07 71 1011.3
20260509225510 73 136 2.0 4.0 0.00 0.07 0.07 71 1011.2
20260509225009 73 184 2.0 4.0 0.00 0.07 0.07 70 1011.1
20260509224524 73 207 1.0 5.0 0.00 0.07 0.07 70 1011.1
20260509224008 73 200 1.0 5.0 0.00 0.07 0.07 70 1011.2
20260509223508 73 250 1.0 4.0 0.00 0.07 0.07 69 1011.0
20260509223005 73 250 1.0 5.0 0.00 0.07 0.07 70 1011.1
20260509222506 73 252 3.0 5.0 0.00 0.07 0.07 69 1011.1
20260509222003 73 184 2.0 8.0 0.00 0.07 0.07 69 1011.1
20260509221504 73 187 3.0 8.0 0.00 0.07 0.07 68 1011.1
20260509221004 74 286 2.0 11.0 0.00 0.07 0.07 68 1011.1
20260509220504 74 216 3.0 11.0 0.00 0.07 0.07 68 1011.1
20260509220007 74 231 1.0 6.0 0.00 0.07 0.07 68 1011.1
20260509215503 74 188 2.0 10.0 0.00 0.07 0.07 68 1011.1
20260509215003 74 200 4.0 10.0 0.00 0.07 0.07 67 1011.0
20260509214508 74 249 3.0 9.0 0.00 0.07 0.07 68 1010.9
20260509214006 74 149 5.0 9.0 0.00 0.07 0.07 66 1011.0
20260509213508 74 161 4.0 10.0 0.00 0.07 0.07 66 1010.9